Home   Weather   Sarajevo   Past weeks

Flag for Bosnia-Herzegovina Past Weather in Sarajevo, Bosnia-Herzegovina — Yesterday and Last 2 Weeks

Now
79 °F

Passing clouds.


Feels Like: 79 °F
Forecast: 67 / 84 °F
Wind: 22 mph from South

Location: Sarajevo / Butmir

Current Time: Jun 29, 2017 at 2:33:11 am

Latest Report: Jun 29, 2017 at 2:00 am


Visibility: N/A

Pressure: 29.68 "Hg (27.95 "Hg at 526m altitude)

Humidity: 39%

Dew Point: 52 °F

Location of SarajevoLocation

Past Weather in Sarajevo — Graph

°F

Sarajevo Temperature Yesterday

Maximum temperature yesterday: 90 °F (at 3:00 pm)
Minimum temperature yesterday: 57 °F (at 5:30 am)
Average temperature yesterday: 76 °F

High & Low Weather Summary for the Past Weeks

 TemperatureHumidityPressure
High91 °F (Jun 25, 2:00 pm)100% (Jun 16, 9:30 pm)30.21 "Hg (Jun 16, 9:30 pm)
Low50 °F (Jun 20, 4:00 am)24% (Jun 16, 12:30 pm)29.71 "Hg (Jun 29, 12:00 am)
Average71 °F66%30.03 "Hg
* Reported Jun 14 1:00 am — Jun 29 1:00 am, Sarajevo. Weather by CustomWeather, © 2017

Note: Actual official high and low records may vary slightly from our data, if they occured in-between our weather recording intervals... More about our weather records

Advertising

Sarajevo Weather History for the Previous 24 Hours

Scroll right to see more
 ConditionsComfort  
Time TempWeatherWind HumidityBarometerVisibility
1:00 am
Thu, Jun 29
77 °FPassing clouds.12 mph42%29.71 "HgN/A
12:00 am77 °FClear.17 mph44%29.71 "Hg10 mi
11:00 pm
Wed, Jun 28
77 °FPassing clouds.14 mph44%29.74 "HgN/A
10:30 pm79 °FPassing clouds.17 mph45%29.74 "HgN/A
10:00 pm79 °FClear.17 mph45%29.77 "Hg10 mi
9:30 pm79 °FPassing clouds.13 mph48%29.77 "HgN/A
9:00 pm79 °FPassing clouds.10 mph48%29.77 "HgN/A
8:30 pm79 °FPassing clouds.9 mph51%29.77 "HgN/A
8:00 pm81 °FPassing clouds.14 mph48%29.74 "HgN/A
7:30 pm82 °FPassing clouds.9 mph42%29.74 "HgN/A
7:00 pm84 °FPassing clouds.10 mph35%29.74 "HgN/A
6:30 pm88 °FSunny.3 mph31%29.77 "Hg10 mi
6:00 pm84 °FPassing clouds.5 mph43%29.77 "HgN/A
5:30 pm86 °FPassing clouds.3 mph40%29.77 "HgN/A
5:00 pm86 °FPassing clouds.5 mph33%29.77 "HgN/A
4:30 pm86 °FPassing clouds.7 mph38%29.77 "HgN/A
4:00 pm88 °FPassing clouds.10 mph31%29.77 "HgN/A
3:30 pm90 °FSunny.5 mph31%29.77 "Hg10 mi
3:00 pm90 °FSunny.5 mph33%29.77 "Hg10 mi
2:30 pm88 °FSunny.6 mph33%29.77 "Hg10 mi
2:00 pm88 °FPassing clouds.9 mph35%29.80 "HgN/A
1:30 pm88 °FPassing clouds.9 mph31%29.80 "HgN/A
1:00 pm88 °FPassing clouds.8 mph31%29.80 "HgN/A
12:30 pm86 °FSunny.6 mph35%29.80 "Hg10 mi
12:00 pm86 °FPassing clouds.3 mph33%29.80 "HgN/A
11:30 am86 °FSunny.2 mph38%29.80 "Hg10 mi
11:00 am84 °FPassing clouds.6 mph40%29.80 "HgN/A
10:30 am81 °FSunny.3 mph48%29.80 "Hg10 mi
10:00 am77 °FSunny.2 mph54%29.80 "Hg10 mi
9:30 am73 °FPassing clouds.5 mph65%29.80 "HgN/A
9:00 am70 °FSunny.2 mph73%29.83 "Hg10 mi
8:30 am66 °FPassing clouds.5 mph83%29.83 "HgN/A
8:00 am64 °FSunny.2 mph83%29.83 "Hg10 mi
7:30 am63 °FSunny.1 mph88%29.83 "Hg10 mi
7:00 am61 °FSunny.2 mph88%29.83 "Hg10 mi
6:30 am59 °FSunny.1 mph94%29.83 "Hg10 mi
6:00 am59 °FSunny.1 mph94%29.83 "Hg10 mi
5:30 am57 °FSunny.1 mph100%29.83 "Hg10 mi
5:00 am59 °FClear.1 mph94%29.83 "Hg10 mi
4:00 am59 °FClear.No wind94%29.86 "Hg10 mi
3:00 am59 °FClear.1 mph94%29.86 "Hg10 mi
2:00 am61 °FClear.2 mph88%29.89 "Hg10 mi
Weather by CustomWeather, © 2017

See weather overviewHow to use our weather pages